カタログに戻る

SL-8 DEB

運用中UNKNOWN
NORAD 21722·DEBRIS·🇷🇺 Russia

打ち上げ Feb 12, 1991 から Plesetsk Cosmodrome

Loading…

次のパス (今後24時間)

TLE

最新Source: Space-Track

元期: Sep 14, 2026, 10:22 UTC

1 21722U 91009BY  26257.43244368 -.00000014  00000-0 -29865-4 0  9990
2 21722  74.0514 278.4438 0369993 162.0167 268.6279 11.77225004502449

AllMySatでSL-8 DEBをリアルタイム追跡

Download on the App Store